[[{"header":{"parameterUnit":"m.s-1","parameterCategory":1,"la1":30.2991,"la2":30.254,"lo1":-89.0895,"lo2":-89.0444,"dy":0.0017,"dx":0.0017,"nx":28,"ny":28,"refTime":"2025-05-25T03:00:00:Z","depth":0,"parameterNumber":2,"parameterNumberName":"U-component_of_WINDS"},"data":[0,0,0,0,0,0,0,0,0,0,0,0,0,0,0,0,0,0,0,0,0,0,0,0,0,0,0,0,0,0,0,0,0,0,0,0,0,0,0,0,0,0,0,0,0,0,0,0,0,0,0,0,0,0,0,0,0,0,1.4311,1.4312,0,1.4383,1.4384,1.4385,1.4385,1.4384,1.4383,1.4382,1.4456,1.4459,1.4462,0,0,0,0,0,0,0,0,0,0,0,0,0,1.4173,1.4176,1.4311,1.4312,1.4313,1.4383,1.4384,1.4385,1.4385,1.4384,1.4383,1.4382,1.4455,1.4458,1.4462,0,0,0,0,0,0,0,0,0,0,0,0,0,1.4238,1.4177,1.4311,1.4321,1.4323,1.4383,1.4384,1.4385,1.4385,1.4384,1.4383,1.4381,1.4454,1.4458,1.4462,1.4516,0,0,1.4475,1.4477,0,0,0,0,0,0,0,0,1.4234,1.4243,1.4319,1.4321,1.4323,1.4374,1.4362,1.4429,1.4386,1.4362,1.4382,1.4381,1.443,1.4436,1.4452,1.452,1.4523,1.4476,1.4478,1.448,1.4481,0,0,0,0,0,0,0,1.423,1.424,1.434,1.432,1.4322,1.4322,1.433,1.4375,1.4403,1.4364,1.4364,1.4372,1.443,1.4448,1.4454,1.4524,1.4476,1.4479,1.4482,1.4484,1.4638,1.4639,0,0,0,0,0,0,1.4223,1.4236,1.4337,1.4342,1.4274,1.4326,1.4334,1.4359,1.4402,1.4407,1.4373,1.4372,1.4442,1.4449,1.4457,1.4521,1.448,1.4484,1.4486,1.4636,1.4638,1.464,0,0,0,0,0,0,1.422,1.4232,1.4334,1.4289,1.4302,1.433,1.4357,1.4361,1.4379,1.441,1.4414,1.4387,1.4441,1.4451,1.4501,1.4524,1.4486,1.449,1.4634,1.4637,1.4639,1.4652,0,0,0,0,0,0,1.4216,1.4231,1.4252,1.4289,1.4304,1.4378,1.4358,1.4363,1.4386,1.4385,1.4423,1.4428,1.4441,1.4495,1.4505,1.4529,1.4493,1.4632,1.4635,1.4638,1.465,1.4655,1.4659,0,0,0,0,0,1.4211,1.4254,1.4253,1.4265,1.4331,1.4379,1.4388,1.4401,1.4388,1.4409,1.4428,1.4427,1.452,1.45,1.4512,1.4537,1.4631,1.4634,1.4638,1.4648,1.4654,1.4659,0,0,0,0,0,0,1.4219,1.4259,1.4259,1.4314,1.4343,1.4379,1.4406,1.4407,1.444,1.4438,1.4453,1.4462,1.4512,1.453,1.4507,1.4591,1.4574,1.458,1.4577,1.4583,1.4588,1.4582,1.4497,0,0,0,0,0,1.4227,1.4262,1.4295,1.4341,1.4356,1.4378,1.44,1.4407,1.4438,1.445,1.4474,1.4503,1.4539,1.4562,1.4597,1.4653,1.466,1.4676,1.468,1.4684,1.4689,1.4718,1.4725,1.4651,1.4651,1.4651,0,0,1.4244,1.427,1.4292,1.4343,1.4367,1.4402,1.4389,1.4428,1.4454,1.4456,1.4505,1.4523,1.4557,1.461,1.4634,1.4626,1.4711,1.4688,1.4691,1.4694,1.4722,1.4729,1.4735,1.4653,1.4653,1.4652,0,0,1.4293,1.4317,1.4357,1.438,1.4415,1.443,1.444,1.4475,1.4487,1.4536,1.4538,1.457,1.4631,1.4655,1.4675,1.4732,1.4731,1.4743,1.4766,1.4794,1.48,1.4805,1.4824,1.4831,1.4748,1.4748,1.4748,0,1.4309,1.4364,1.4377,1.4416,1.4438,1.4441,1.4481,1.4503,1.4548,1.4563,1.4554,1.463,1.4654,1.4711,1.4725,1.4741,1.4752,1.4738,1.4798,1.4804,1.4809,1.4827,1.4834,1.4749,1.4749,1.4749,1.4748,0,1.4382,1.4419,1.4448,1.449,1.4515,1.4555,1.4574,1.4598,1.4603,1.4618,1.4667,1.4695,1.4735,1.4749,1.4756,1.4808,1.4801,1.4795,1.4778,1.4817,1.4834,1.4841,1.475,1.475,1.475,1.4749,0,0,1.4438,1.4486,1.4496,1.4515,1.4554,1.4583,1.4622,1.466,1.468,1.4711,1.4743,1.4795,1.4788,1.4811,1.482,1.4845,1.4886,1.4835,1.4836,1.4843,1.4944,1.4947,1.4955,1.4886,1.4888,1.4889,1.494,0,1.449,1.4559,1.4571,1.4632,1.4666,1.4669,1.4702,1.4729,1.4745,1.4776,1.4793,1.4828,1.4819,1.4832,1.4857,1.4876,1.4906,1.4872,1.4916,1.4917,1.4906,1.4964,1.4968,1.5016,1.4947,1.4948,1.4949,0,1.456,1.4591,1.4654,1.4687,1.4702,1.4732,1.4768,1.4798,1.4828,1.4837,1.4862,1.4868,1.4907,1.4889,1.4943,1.492,1.4938,1.495,1.4952,1.4956,1.4935,1.4968,1.5031,1.5038,1.496,1.4959,1.4959,0,1.4592,1.4651,1.4695,1.4712,1.4751,1.4772,1.479,1.4819,1.4841,1.4872,1.4886,1.4922,1.4941,1.4968,1.4982,1.4968,1.5035,1.5019,1.5043,1.5043,1.5057,1.5056,1.5122,1.5071,1.5071,1.5071,1.507,0,1.4648,1.4686,1.471,1.4738,1.478,1.4795,1.4836,1.4853,1.4879,1.4909,1.4915,1.4943,1.4961,1.4992,1.5004,1.5046,1.5056,1.5064,1.5066,1.5062,1.5061,1.5074,1.5071,1.5073,1.5072,1.5072,1.5071,0,1.4691,1.4709,1.4758,1.4791,1.48,1.483,1.4858,1.4885,1.49,1.4938,1.4948,1.4972,1.5008,1.5026,1.5072,1.5079,1.5127,1.5128,1.5117,1.5117,1.5141,1.5138,1.5217,1.5227,1.517,1.5171,1.5171,0,1.4725,1.4754,1.479,1.4811,1.4829,1.4862,1.4884,1.4899,1.4922,1.4958,1.498,1.5017,1.5047,1.5105,1.5126,1.516,1.5161,1.5187,1.5167,1.5162,1.516,1.5158,1.516,1.519,1.5191,1.5191,1.5191,0,1.4783,1.479,1.4821,1.4856,1.4882,1.491,1.4937,1.4954,1.4973,1.4998,1.5035,1.5059,1.5104,1.514,1.5176,1.5194,1.5196,1.5198,1.5205,1.5201,1.5193,1.5196,1.5125,1.5196,1.5195,1.5195,1.5195,1.5195,1.4821,1.4847,1.4876,1.4911,1.4933,1.4958,1.4984,1.5002,1.5033,1.5071,1.5078,1.5118,1.5146,1.5194,1.5213,1.5244,1.5238,1.5249,1.5251,1.5254,1.5254,1.5189,1.525,1.525,1.525,1.525,1.525,0,1.4878,1.4897,1.4928,1.4966,1.4993,1.4993,1.5023,1.5045,1.5079,1.5106,1.5135,1.5177,1.5212,1.5235,1.527,1.529,1.5292,1.5299,1.5297,1.53,1.5258,1.5247,1.5297,1.5297,1.5297,1.5297,1.5297,1.5297,1.4911,1.4953,1.4964,1.5017,1.5036,1.5074,1.5091,1.5113,1.5135,1.5181,1.521,1.5225,1.525,1.5287,1.5318,1.5324,1.5336,1.5343,1.5349,1.5308,1.5304,1.5299,1.5289,1.5346,1.5346,1.5388,1.5389,1.5389]},{"header":{"parameterUnit":"m.s-1","parameterCategory":1,"la1":30.2991,"la2":30.254,"lo1":-89.0895,"lo2":-89.0444,"dy":0.0017,"dx":0.0017,"nx":28,"ny":28,"refTime":"2025-05-25T03:00:00:Z","depth":0,"parameterNumber":3,"parameterNumberName":"V-component_of_WINDS"},"data":[0,0,0,0,0,0,0,0,0,0,0,0,0,0,0,0,0,0,0,0,0,0,0,0,0,0,0,0,0,0,0,0,0,0,0,0,0,0,0,0,0,0,0,0,0,0,0,0,0,0,0,0,0,0,0,0,0,0,3.6197,3.6198,0,3.6288,3.6289,3.629,3.6267,3.6265,3.6263,3.6261,3.6349,3.6353,3.6357,0,0,0,0,0,0,0,0,0,0,0,0,0,3.5998,3.6002,3.6197,3.6198,3.6199,3.6288,3.6289,3.629,3.6267,3.6265,3.6263,3.6261,3.6348,3.6352,3.6357,0,0,0,0,0,0,0,0,0,0,0,0,0,3.6086,3.6003,3.6197,3.6198,3.6199,3.6288,3.6289,3.6291,3.6267,3.6265,3.6262,3.626,3.6346,3.6352,3.6358,3.6448,0,0,3.6376,3.6379,0,0,0,0,0,0,0,0,3.6081,3.6093,3.6197,3.6198,3.62,3.6263,3.6251,3.6343,3.6268,3.6241,3.6261,3.6258,3.6322,3.633,3.6353,3.6452,3.6456,3.6377,3.638,3.6383,3.6385,0,0,0,0,0,0,0,3.6075,3.6089,3.6233,3.6198,3.62,3.6193,3.6202,3.6268,3.6295,3.6244,3.6242,3.6253,3.6322,3.6347,3.6355,3.6457,3.6377,3.6382,3.6386,3.6388,3.6635,3.6638,0,0,0,0,0,0,3.6068,3.6084,3.623,3.6235,3.6133,3.6199,3.6209,3.6245,3.6295,3.63,3.6256,3.6252,3.6338,3.6348,3.6358,3.6467,3.6383,3.6389,3.6392,3.6632,3.6636,3.6639,0,0,0,0,0,0,3.6064,3.6082,3.6226,3.616,3.6177,3.6205,3.6246,3.6249,3.6273,3.6304,3.6308,3.6276,3.6336,3.6349,3.6426,3.647,3.6391,3.6397,3.6629,3.6633,3.6637,3.6686,0,0,0,0,0,0,3.6059,3.608,3.6116,3.6161,3.6181,3.6295,3.6248,3.6252,3.6284,3.6281,3.6324,3.6329,3.6335,3.6417,3.6432,3.6476,3.6401,3.6625,3.6631,3.6636,3.6681,3.6692,3.6701,0,0,0,0,0,3.6052,3.6125,3.6118,3.6136,3.6227,3.6298,3.6309,3.6317,3.6288,3.6324,3.6343,3.6328,3.6462,3.6426,3.6442,3.6489,3.6622,3.6629,3.6636,3.6676,3.669,3.6701,0,0,0,0,0,0,3.6083,3.6131,3.6124,3.6214,3.6252,3.6294,3.6339,3.633,3.6376,3.637,3.6376,3.6386,3.6464,3.6484,3.6442,3.6578,3.6538,3.6548,3.6563,3.6576,3.6586,3.658,3.6406,0,0,0,0,0,3.6101,3.6156,3.6194,3.627,3.629,3.6311,3.6342,3.6345,3.6383,3.6399,3.6424,3.6461,3.6511,3.6545,3.6593,3.6683,3.6692,3.6723,3.6733,3.6741,3.675,3.6799,3.6814,3.6661,3.6661,3.6661,0,0,3.6137,3.617,3.6205,3.6277,3.6307,3.6363,3.6325,3.6385,3.6426,3.6407,3.6483,3.6502,3.6543,3.6628,3.6666,3.6646,3.6795,3.675,3.6756,3.6761,3.6808,3.6822,3.6835,3.6665,3.6665,3.6664,0,0,3.6233,3.6264,3.6331,3.6362,3.6408,3.6422,3.6438,3.6481,3.6494,3.6569,3.6557,3.6604,3.6691,3.6722,3.6748,3.6855,3.6843,3.687,3.6924,3.6971,3.6983,3.6994,3.7032,3.7046,3.6879,3.6879,3.6879,0,3.6272,3.6358,3.6366,3.6428,3.646,3.6447,3.6515,3.6543,3.6602,3.6624,3.6601,3.6711,3.6738,3.6829,3.6855,3.6877,3.6895,3.6866,3.6981,3.6992,3.7002,3.7039,3.7053,3.6882,3.6882,3.6882,3.6881,0,3.6404,3.6463,3.6511,3.6571,3.6608,3.6672,3.6688,3.6724,3.6723,3.6739,3.6816,3.6847,3.6902,3.6924,3.6922,3.7015,3.7001,3.698,3.6939,3.702,3.7054,3.7068,3.6887,3.6886,3.6885,3.6884,0,0,3.6522,3.6586,3.6603,3.663,3.668,3.6725,3.6788,3.6844,3.6875,3.6915,3.6967,3.7042,3.7023,3.7053,3.7055,3.7097,3.718,3.707,3.7071,3.709,3.7283,3.7299,3.7315,3.7171,3.7174,3.7176,3.728,0,3.6622,3.6736,3.6745,3.6846,3.69,3.6889,3.6944,3.698,3.6996,3.7043,3.7059,3.7112,3.7083,3.7101,3.7142,3.7161,3.7218,3.7153,3.7219,3.7221,3.721,3.7333,3.735,3.7446,3.7293,3.7295,3.7297,0,3.6755,3.6802,3.6909,3.6952,3.6975,3.7025,3.7076,3.7121,3.7161,3.717,3.7204,3.72,3.7263,3.722,3.7306,3.7262,3.7289,3.7302,3.7306,3.7313,3.7264,3.7343,3.7477,3.7492,3.7318,3.7316,3.7315,0,3.6831,3.692,3.6997,3.702,3.7072,3.7107,3.7129,3.7167,3.7199,3.7243,3.7265,3.7315,3.7342,3.738,3.7389,3.7357,3.7476,3.7433,3.7484,3.7484,3.7509,3.7508,3.765,3.7526,3.7526,3.7526,3.7525,0,3.6942,3.7008,3.7032,3.7079,3.7152,3.7161,3.7232,3.7253,3.7286,3.7335,3.7328,3.7374,3.7383,3.743,3.7438,3.7508,3.752,3.7528,3.7529,3.7529,3.7528,3.7547,3.7541,3.7529,3.7529,3.7528,3.7527,0,3.704,3.7058,3.714,3.7183,3.7195,3.7248,3.7283,3.7327,3.7342,3.7405,3.742,3.7443,3.7499,3.7512,3.7577,3.7582,3.7665,3.766,3.7653,3.7653,3.7703,3.7698,3.7862,3.7884,3.7746,3.7747,3.7748,0,3.711,3.7161,3.721,3.7243,3.7269,3.7322,3.7356,3.7366,3.7401,3.7451,3.7489,3.7544,3.7588,3.7677,3.7699,3.7749,3.7744,3.7798,3.7752,3.775,3.7746,3.7743,3.7748,3.7807,3.7809,3.781,3.7811,0,3.7233,3.7239,3.729,3.7344,3.7385,3.7427,3.7467,3.7494,3.751,3.7549,3.7607,3.7642,3.771,3.7764,3.7814,3.7836,3.7826,3.7826,3.784,3.7841,3.7835,3.7839,3.7678,3.7822,3.7821,3.782,3.7819,3.7819,3.7319,3.7364,3.7406,3.7462,3.7494,3.7532,3.7576,3.7597,3.7646,3.7704,3.7706,3.7769,3.7806,3.7873,3.7897,3.7945,3.7928,3.7949,3.7954,3.796,3.7965,3.7827,3.7954,3.7954,3.7954,3.7953,3.7953,0,3.7442,3.7468,3.752,3.7578,3.7622,3.761,3.7654,3.7691,3.7747,3.7784,3.7829,3.7895,3.7948,3.7974,3.8026,3.8059,3.8056,3.8072,3.807,3.8075,3.7976,3.7959,3.8074,3.8074,3.8074,3.8074,3.8074,3.8074,3.7511,3.7587,3.7599,3.7689,3.7715,3.7778,3.7804,3.7839,3.7868,3.7944,3.7988,3.8005,3.8038,3.8092,3.8139,3.8145,3.8165,3.8184,3.8187,3.8095,3.8082,3.8071,3.8054,3.8188,3.8188,3.8283,3.8283,3.8284]}]]